When you browse on this site, cookies collect data to enhance your experience and personalize the content and advertising you see.
Visit our Privacy Policy to learn more. By continuing to use the site, you agree to this use of cookies and data.
  • In United Kingdom
  • List of Countries
  • For 7 days
  • Water Temperature
  • Weather Map
  • Weather Widgets
  • user-avatar
    Login

    Hourly Weather Pykovets'

    Today, 22 August, Thursday

    Time Temperature Precipitation Wind Pressure Humidity
    00:00 +20°C° 0 mm 2 mps 741 mmHg 63%
    01:00 +20°C° 0 mm 3 mps 741 mmHg 70%
    02:00 +19°C° 0 mm 4 mps 741 mmHg 76%
    03:00 +19°C° 0 mm 5 mps 741 mmHg 81%
    04:00 +19°C° 0 mm 5 mps 741 mmHg 86%
    05:00 +17°C° 0 mm 5 mps 741 mmHg 90%
    06:00 +17°C° 0 mm 5 mps 742 mmHg 89%
    07:00 +17°C° 0 mm 5 mps 742 mmHg 87%
    08:00 +17°C° 0 mm 5 mps 743 mmHg 85%
    09:00 +19°C° 0 mm 5 mps 743 mmHg 82%
    10:00 +19°C° 0 mm 5 mps 743 mmHg 80%
    11:00 +20°C° 0 mm 5 mps 743 mmHg 77%
    12:00 +21°C° 0 mm 5 mps 743 mmHg 73%
    13:00 +22°C° 0 mm 5 mps 743 mmHg 70%
    14:00 +25°C° 0 mm 5 mps 743 mmHg 66%
    15:00 +25°C° 0 mm 5 mps 743 mmHg 66%
    16:00 +25°C° 0 mm 5 mps 743 mmHg 65%
    17:00 +23°C° 0 mm 5 mps 743 mmHg 65%
    18:00 +22°C° 0 mm 5 mps 743 mmHg 69%
    19:00 +20°C° 0 mm 4 mps 743 mmHg 74%
    20:00 +19°C° 0 mm 3 mps 744 mmHg 79%
    21:00 +18°C° 0 mm 3 mps 744 mmHg 80%
    22:00 +18°C° 0 mm 3 mps 744 mmHg 82%
    23:00 +17°C° 0 mm 3 mps 744 mmHg 84%

    Tomorrow, 23 August, Friday

    Time Temperature Precipitation Wind Pressure Humidity
    00:00 +17°C° 0 mm 3 mps 744 mmHg 87%
    01:00 +16°C° 0 mm 3 mps 744 mmHg 90%
    02:00 +16°C° 0 mm 3 mps 744 mmHg 93%
    03:00 +14°C° 0 mm 3 mps 744 mmHg 94%
    04:00 +14°C° 0 mm 3 mps 744 mmHg 94%
    05:00 +14°C° 0 mm 3 mps 744 mmHg 95%
    06:00 +15°C° 0 mm 4 mps 744 mmHg 90%
    07:00 +17°C° 0 mm 4 mps 744 mmHg 85%
    08:00 +18°C° 0 mm 4 mps 744 mmHg 81%
    09:00 +19°C° 0 mm 4 mps 744 mmHg 75%
    10:00 +21°C° 0 mm 4 mps 745 mmHg 69%
    11:00 +22°C° 0 mm 5 mps 745 mmHg 63%
    12:00 +23°C° 0 mm 5 mps 745 mmHg 60%
    13:00 +23°C° 0 mm 5 mps 744 mmHg 57%
    14:00 +25°C° 0 mm 5 mps 744 mmHg 54%
    15:00 +25°C° 0 mm 5 mps 744 mmHg 54%
    16:00 +23°C° 0 mm 5 mps 744 mmHg 55%
    17:00 +23°C° 0 mm 5 mps 744 mmHg 55%
    18:00 +21°C° 0 mm 4 mps 744 mmHg 60%
    19:00 +19°C° 0 mm 3 mps 744 mmHg 65%
    20:00 +18°C° 0 mm 3 mps 744 mmHg 71%
    21:00 +17°C° 0 mm 3 mps 744 mmHg 72%
    22:00 +16°C° 0 mm 3 mps 744 mmHg 74%
    23:00 +16°C° 0 mm 3 mps 744 mmHg 76%

    Day after tomorrow, 24 August, Saturday

    Time Temperature Precipitation Wind Pressure Humidity
    00:00 +14°C° 0 mm 3 mps 744 mmHg 77%
    01:00 +14°C° 0 mm 3 mps 744 mmHg 79%
    02:00 +14°C° 0 mm 2 mps 744 mmHg 80%
    03:00 +12°C° 0 mm 3 mps 744 mmHg 83%
    04:00 +12°C° 0 mm 3 mps 744 mmHg 86%
    05:00 +12°C° 0 mm 3 mps 744 mmHg 89%
    06:00 +13°C° 0 mm 3 mps 744 mmHg 83%
    07:00 +16°C° 0 mm 3 mps 744 mmHg 78%
    08:00 +18°C° 0 mm 3 mps 744 mmHg 72%
    09:00 +20°C° 0 mm 3 mps 744 mmHg 65%
    10:00 +22°C° 0 mm 3 mps 744 mmHg 58%
    11:00 +25°C° 0 mm 3 mps 744 mmHg 51%
    12:00 +25°C° 0 mm 3 mps 744 mmHg 47%
    13:00 +26°C° 0 mm 3 mps 744 mmHg 44%
    14:00 +27°C° 0 mm 3 mps 744 mmHg 40%
    15:00 +26°C° 0 mm 3 mps 743 mmHg 42%
    16:00 +26°C° 0 mm 3 mps 743 mmHg 44%
    17:00 +26°C° 0 mm 3 mps 743 mmHg 46%
    18:00 +22°C° 0 mm 3 mps 743 mmHg 51%
    19:00 +20°C° 0 mm 3 mps 743 mmHg 55%
    20:00 +18°C° 0 mm 3 mps 743 mmHg 60%
    21:00 +18°C° 0 mm 2 mps 743 mmHg 59%
    22:00 +17°C° 0 mm 2 mps 743 mmHg 57%
    23:00 +17°C° 0 mm 2 mps 743 mmHg 56%

    25 August, Sunday

    Time Temperature Precipitation Wind Pressure Humidity
    00:00 +16°C° 0 mm 2 mps 743 mmHg 57%
    01:00 +16°C° 0 mm 2 mps 743 mmHg 58%
    02:00 +15°C° 0 mm 2 mps 743 mmHg 59%
    03:00 +15°C° 0 mm 2 mps 743 mmHg 61%
    04:00 +15°C° 0 mm 2 mps 743 mmHg 62%
    05:00 +15°C° 0 mm 2 mps 743 mmHg 64%
    06:00 +16°C° 0 mm 3 mps 743 mmHg 62%
    07:00 +17°C° 0 mm 3 mps 743 mmHg 60%
    08:00 +19°C° 0 mm 3 mps 743 mmHg 58%
    09:00 +20°C° 0 mm 3 mps 743 mmHg 54%
    10:00 +22°C° 0 mm 3 mps 743 mmHg 50%
    11:00 +25°C° 0 mm 4 mps 744 mmHg 45%
    12:00 +25°C° 0 mm 3 mps 743 mmHg 44%
    13:00 +26°C° 0 mm 3 mps 743 mmHg 42%
    14:00 +27°C° 0 mm 3 mps 743 mmHg 41%
    15:00 +26°C° 0 mm 3 mps 743 mmHg 43%
    16:00 +26°C° 0 mm 3 mps 743 mmHg 45%
    17:00 +25°C° 0 mm 3 mps 742 mmHg 46%
    18:00 +22°C° 0 mm 3 mps 742 mmHg 51%
    19:00 +20°C° 0 mm 3 mps 743 mmHg 56%
    20:00 +18°C° 0 mm 2 mps 743 mmHg 61%
    21:00 +18°C° 0 mm 2 mps 743 mmHg 62%
    22:00 +17°C° 0 mm 2 mps 743 mmHg 63%
    23:00 +17°C° 0 mm 2 mps 743 mmHg 64%

    26 August, Monday

    Time Temperature Precipitation Wind Pressure Humidity
    00:00 +16°C° 0 mm 3 mps 743 mmHg 67%
    01:00 +16°C° 0 mm 3 mps 743 mmHg 70%
    02:00 +16°C° 0 mm 3 mps 743 mmHg 73%
    03:00 +14°C° 0 mm 3 mps 743 mmHg 77%
    04:00 +14°C° 0 mm 3 mps 743 mmHg 81%
    05:00 +14°C° 0 mm 3 mps 743 mmHg 84%
    06:00 +16°C° 0 mm 3 mps 743 mmHg 80%
    07:00 +18°C° 0 mm 3 mps 743 mmHg 76%
    08:00 +20°C° 0 mm 3 mps 744 mmHg 73%
    09:00 +22°C° 0 mm 3 mps 744 mmHg 65%
    10:00 +25°C° 0 mm 4 mps 744 mmHg 57%
    11:00 +26°C° 0 mm 4 mps 744 mmHg 50%
    12:00 +27°C° 0 mm 4 mps 744 mmHg 47%
    13:00 +28°C° 0 mm 4 mps 744 mmHg 45%
    14:00 +28°C° 0 mm 4 mps 743 mmHg 42%
    15:00 +28°C° 0 mm 4 mps 743 mmHg 44%
    16:00 +28°C° 0 mm 4 mps 743 mmHg 46%
    17:00 +27°C° 0 mm 4 mps 742 mmHg 48%
    18:00 +25°C° 0 mm 4 mps 742 mmHg 52%
    19:00 +22°C° 0 mm 4 mps 742 mmHg 57%
    20:00 +20°C° 0 mm 3 mps 742 mmHg 61%
    21:00 +19°C° 0 mm 3 mps 742 mmHg 60%
    22:00 +19°C° 0 mm 3 mps 742 mmHg 59%
    23:00 +18°C° 0 mm 3 mps 742 mmHg 58%

    27 August, Tuesday

    Time Temperature Precipitation Wind Pressure Humidity
    00:00 +17°C° 0 mm 3 mps 742 mmHg 60%
    01:00 +17°C° 0 mm 3 mps 742 mmHg 61%
    02:00 +16°C° 0 mm 2 mps 742 mmHg 62%
    03:00 +16°C° 0 mm 2 mps 742 mmHg 62%
    04:00 +16°C° 0 mm 2 mps 742 mmHg 62%
    05:00 +15°C° 0 mm 2 mps 741 mmHg 63%
    06:00 +17°C° 0 mm 2 mps 741 mmHg 60%
    07:00 +19°C° 0 mm 2 mps 741 mmHg 57%
    08:00 +20°C° 0 mm 2 mps 742 mmHg 54%
    09:00 +23°C° 0 mm 2 mps 741 mmHg 49%
    10:00 +25°C° 0 mm 2 mps 741 mmHg 45%
    11:00 +27°C° 0 mm 3 mps 741 mmHg 40%
    12:00 +27°C° 0 mm 2 mps 741 mmHg 39%
    13:00 +28°C° 0 mm 2 mps 741 mmHg 38%
    14:00 +28°C° 0 mm 2 mps 741 mmHg 37%
    15:00 +28°C° 0 mm 2 mps 740 mmHg 39%
    16:00 +27°C° 0 mm 2 mps 740 mmHg 41%
    17:00 +27°C° 0 mm 2 mps 740 mmHg 43%
    18:00 +25°C° 0 mm 2 mps 740 mmHg 48%
    19:00 +23°C° 0 mm 2 mps 740 mmHg 54%
    20:00 +19°C° 0 mm 2 mps 739 mmHg 59%
    21:00 +19°C° 0 mm 2 mps 740 mmHg 60%
    22:00 +18°C° 0 mm 2 mps 740 mmHg 62%
    23:00 +19°C° 0 mm 1 mps 740 mmHg 63%
    Show more